Kiana, AK

2:59 PM AKDT on April 20, 2018 (GMT -0800)
Baker Memorial

Weather History for PAIK - October, 2013

Change the Weather History Date:

Tuesday, October 29, 2013

  Actual Average (PASK) Record (PASK)
Temperature  
Mean Temperature 27 °F -  
Max Temperature 21 °F 17 °F 37 °F (2002)
Min Temperature 21 °F 9 °F -7 °F (1997)
Degree Days  
Heating Degree Days 38    
Moisture  
Dew Point 29 °F    
Average Humidity 93    
Maximum Humidity 100    
Minimum Humidity 82    
Precipitation  
Precipitation 0.00 in - - ()
Sea Level Pressure  
Sea Level Pressure 29.35 in    
Wind  
Wind Speed 2 mph (NNW)    
Max Wind Speed 9 mph    
Max Gust Speed -    
Visibility 7 miles    
Events Rain , Snow    
Averages and records for this station are not official NWS values.
T = Trace of Precipitation, MM = Missing Value Source: NWS Daily Summary

Daily Weather History Graph

Daily Weather History Graph

Search for Another Location

Airport or City:

Astronomy

Oct. 29, 2013 Rise Set
Actual Time 10:34 AM AKDT 6:14 PM AKDT
Civil Twilight 9:34 AM AKDT 7:14 PM AKDT
Nautical Twilight 8:31 AM AKDT 8:18 PM AKDT
Astronomical Twilight 7:29 AM AKDT 9:19 PM AKDT
Moon 3:33 AM AKDT (10/29) 5:22 PM AKDT (10/29)
Length of Visible Light 9h 40m
Length of Day
7h 40m
Waning Crescent, 24% of the Moon is Illuminated
Oct 29
Waning Crescent
Nov 3
New
Nov 9
First Quarter
Nov 17
Full
Nov 25
Last Quarter

Hourly Weather History & Observations

Time (AKDT) Temp. Windchill Dew Point Humidity Pressure Visibility Wind Dir Wind Speed Gust Speed Precip Events Conditions
12:01 AM 33.8 °F - 32.0 °F 93% 29.11 in 1.0 mi Calm Calm - 0.00 in Snow Light Snow
12:19 AM 33.8 °F - 32.0 °F 93% 29.12 in 1.5 mi Calm Calm - 0.00 in Snow Light Snow
12:29 AM 33.8 °F - 32.0 °F 93% 29.12 in 4.0 mi Calm Calm - 0.00 in   Overcast
12:57 AM 33.8 °F - 32.0 °F 93% 29.13 in 10.0 mi Calm Calm - 0.00 in   Overcast
1:01 AM 33.1 °F - 32.0 °F 96% 29.26 in 9.0 mi Calm Calm - 0.00 in   Overcast
1:25 AM 33.8 °F - 32.0 °F 93% 29.14 in 6.0 mi Calm Calm - 0.00 in Rain Light Rain
1:48 AM 33.8 °F - 32.0 °F 93% 29.14 in 1.8 mi Calm Calm - 0.00 in   Overcast
2:01 AM 33.1 °F - 32.0 °F 96% 29.28 in 1.8 mi Calm Calm - 0.00 in Rain Light Rain
2:17 AM 33.8 °F - 32.0 °F 93% 29.16 in 1.0 mi Calm Calm - 0.00 in Rain Light Rain
2:26 AM 33.8 °F 30.8 °F 32.0 °F 93% 29.16 in 1.5 mi SW 3.5 mph - 0.00 in Rain Light Rain
2:34 AM 33.8 °F 29.6 °F 32.0 °F 93% 29.16 in 2.0 mi SSW 4.6 mph - 0.00 in Rain Light Rain
2:53 AM 33.8 °F 29.6 °F 32.0 °F 93% 29.17 in 6.0 mi South 4.6 mph - 0.00 in   Overcast
3:01 AM 33.1 °F - 32.0 °F 96% 29.29 in 6.0 mi Calm Calm - 0.00 in Snow Light Snow
4:01 AM 33.1 °F 30.0 °F 32.0 °F 96% 29.31 in 10.0 mi South 3.5 mph - 0.00 in   Overcast
4:40 AM 33.8 °F - 32.0 °F 93% 29.21 in 1.8 mi Calm Calm - 0.00 in Rain Light Rain
5:01 AM 33.8 °F - 32.0 °F 93% 29.22 in 2.0 mi Calm Calm - 0.00 in   Overcast
5:10 AM 33.8 °F - 32.0 °F 93% 29.22 in 6.0 mi Calm Calm - 0.00 in   Overcast
5:29 AM 33.8 °F - 32.0 °F 93% 29.23 in 8.0 mi Calm Calm - 0.00 in   Overcast
5:48 AM 33.1 °F - 32.0 °F 96% 29.37 in 5.0 mi Calm Calm - 0.00 in   Overcast
6:01 AM 33.1 °F - 32.0 °F 96% 29.37 in 5.0 mi Calm Calm - N/A   Overcast
6:31 AM 33.8 °F 28.6 °F 32.0 °F 93% 29.26 in 4.0 mi NW 5.8 mph - 0.00 in Snow Light Snow
7:01 AM 32.0 °F 25.6 °F 32.0 °F 100% 29.27 in 7.0 mi NW 6.9 mph - 0.00 in Snow Light Snow
7:13 AM 32.0 °F 25.6 °F 30.9 °F 96% 29.40 in 7.0 mi NW 6.9 mph - 0.00 in Snow Light Snow
8:01 AM 30.9 °F 24.3 °F 30.9 °F 100% 29.42 in 9.0 mi NW 6.9 mph - 0.00 in Snow Light Snow
9:01 AM 30.9 °F 25.2 °F 30.0 °F 96% 29.45 in 9.0 mi NNW 5.8 mph - 0.00 in   Overcast
10:01 AM 30.0 °F 21.7 °F 28.9 °F 96% 29.48 in 10.0 mi NNW 9.2 mph - 0.00 in   Overcast
11:01 AM 30.0 °F 23.2 °F 27.0 °F 88% 29.50 in 10.0 mi NNW 6.9 mph - N/A   Overcast
12:01 PM 30.0 °F 25.2 °F 27.0 °F 88% 29.52 in 10.0 mi NNW 4.6 mph - N/A   Overcast
1:01 PM 32.0 °F - 28.9 °F 88% 29.55 in 10.0 mi Calm Calm - N/A   Overcast
2:01 PM 32.0 °F - 28.9 °F 88% 29.55 in 10.0 mi Calm Calm - N/A   Overcast
3:01 PM 33.1 °F - 28.9 °F 85% 29.57 in 10.0 mi Calm Calm - N/A   Scattered Clouds
4:01 PM 33.1 °F - 28.0 °F 82% 29.57 in 10.0 mi Calm Calm - N/A   Partly Cloudy
5:01 PM 32.0 °F - 28.9 °F 88% 29.57 in 10.0 mi Calm Calm - N/A   Clear
6:01 PM 28.9 °F - 27.0 °F 92% 29.58 in 10.0 mi Calm Calm - N/A   Clear
7:01 PM 28.0 °F 24.2 °F 27.0 °F 96% 29.59 in 10.0 mi ENE 3.5 mph - N/A   Clear
8:01 PM 24.8 °F 19.1 °F 24.8 °F 100% 29.47 in 7.0 mi North 4.6 mph - N/A   Mostly Cloudy
9:01 PM 24.8 °F 19.1 °F 23.0 °F 93% 29.47 in 10.0 mi North 4.6 mph - N/A   Scattered Clouds
10:01 PM 21.2 °F 13.6 °F 21.2 °F 100% 29.47 in 10.0 mi ENE 5.8 mph - N/A   Mostly Cloudy
11:01 PM 23.0 °F 18.4 °F 21.0 °F 92% 29.60 in 10.0 mi NNW 3.5 mph - N/A   Mostly Cloudy
11:40 PM 23.0 °F 18.4 °F 21.2 °F 93% 29.47 in 10.0 mi NNW 3.5 mph - N/A   Scattered Clouds
11:49 PM 21.2 °F 16.4 °F 19.4 °F 93% 29.48 in 10.0 mi NE 3.5 mph - N/A   Mostly Cloudy